Weather History for Cut Bank, MT

Change the Weather History Date:

Wednesday, December 19, 2012

  Actual Average Record
Temperature  
Mean Temperature 19 °F 22 °F  
Max Temperature 31 °F 32 °F 61 °F (1954)
Min Temperature 6 °F 11 °F -24 °F (1949)
Degree Days  
Heating Degree Days 46 44  
Month to date heating degree days 720 802  
Since 1 July heating degree days 2860 3065  
Cooling Degree Days 0 0  
Month to date cooling degree days 0 0  
Year to date cooling degree days 210 162  
Moisture  
Dew Point 8 °F    
Average Humidity 62    
Maximum Humidity 84    
Minimum Humidity 39    
Precipitation  
Precipitation 0.00 in 0.01 in 0.15 in (1925)
Month to date precipitation 0.18 0.13  
Year to date precipitation 9.03 10.81  
Snow  
Snow 0.00 in - - ()
Snow Depth 0.00 in    
Sea Level Pressure  
Sea Level Pressure 29.95 in    
Wind  
Wind Speed 15 mph (WSW)    
Max Wind Speed 38 mph    
Max Gust Speed 44 mph    
Visibility 10 miles    
Events      
T = Trace of Precipitation, MM = Missing Value Source: NWS Daily Summary

Daily Weather History Graph

Daily Weather History Graph

Search for Another Location

Airport:

Trip Planner

Search our weather history database for the weather conditions in past years. The results will help you decide how hot, cold, wet, or windy it might be!

Date:

Astronomy

Dec. 19, 2012 Rise Set
Actual Time 8:18 AM MST 4:35 PM MST
Civil Twilight 7:41 AM MST 5:12 PM MST
Nautical Twilight 7:01 AM MST 5:52 PM MST
Astronomical Twilight 6:22 AM MST 6:31 PM MST
Moon 11:56 AM MST (12/19) No Moon Set
Length of Visible Light 9h 31m
Length of Day
8h 17m
Waxing Crescent, 45% of the Moon is Illuminated
Dec 19
Waxing Crescent
Dec 19
First Quarter
Dec 28
Full
Jan 4
Last Quarter
Jan 11
New

Hourly Weather History & Observations

Time (MST) Temp. Windchill Dew Point Humidity Pressure Visibility Wind Dir Wind Speed Gust Speed Precip Events Conditions
12:56 AM 12.9 °F -0.9 °F 6.1 °F 74% 29.90 in 10.0 mi West 11.5 mph - N/A   Clear
1:56 AM 14.0 °F 1.2 °F 6.1 °F 71% 29.91 in 10.0 mi West 10.4 mph - N/A   Clear
2:56 AM 10.9 °F 0.2 °F 5.0 °F 77% 29.93 in 10.0 mi NNW 6.9 mph - N/A   Clear
3:56 AM 10.0 °F -0.9 °F 3.9 °F 76% 29.93 in 10.0 mi NNW 6.9 mph - N/A   Clear
4:56 AM 9.0 °F 2.4 °F 3.9 °F 80% 29.94 in 10.0 mi Variable 3.5 mph - N/A   Clear
5:56 AM 12.9 °F - 6.1 °F 74% 29.96 in 10.0 mi Calm Calm - N/A   Clear
6:56 AM 12.9 °F 0.7 °F 8.1 °F 81% 29.97 in 10.0 mi WNW 9.2 mph - N/A   Clear
7:56 AM 12.0 °F 5.9 °F 6.1 °F 77% 29.99 in 10.0 mi West 3.5 mph - N/A   Clear
8:56 AM 19.9 °F 4.3 °F 9.0 °F 62% 29.99 in 10.0 mi West 19.6 mph - N/A   Clear
9:56 AM 21.9 °F 8.7 °F 10.9 °F 63% 30.00 in 10.0 mi West 15.0 mph - N/A   Clear
10:56 AM 26.1 °F 10.4 °F 9.0 °F 49% 30.00 in 10.0 mi WSW 26.5 mph 32.2 mph N/A   Clear
11:56 AM 28.0 °F 13.0 °F 7.0 °F 41% 29.97 in 10.0 mi WSW 26.5 mph 34.5 mph N/A   Clear
12:56 PM 28.0 °F 11.5 °F 6.1 °F 39% 29.95 in 10.0 mi WSW 33.4 mph 40.3 mph N/A   Clear
1:56 PM 28.0 °F 11.1 °F 6.1 °F 39% 29.95 in 10.0 mi WSW 35.7 mph 41.4 mph N/A   Clear
2:56 PM 25.0 °F 10.2 °F 6.1 °F 45% 29.97 in 10.0 mi WSW 21.9 mph 29.9 mph N/A   Clear
3:56 PM 26.1 °F 9.6 °F 7.0 °F 44% 29.97 in 10.0 mi WSW 29.9 mph 39.1 mph N/A   Mostly Cloudy
4:56 PM 26.1 °F 11.6 °F 8.1 °F 47% 29.97 in 10.0 mi WSW 21.9 mph 31.1 mph N/A   Partly Cloudy
5:56 PM 25.0 °F 14.2 °F 9.0 °F 51% 29.96 in 10.0 mi SSW 11.5 mph 19.6 mph N/A   Scattered Clouds
6:56 PM 23.0 °F 12.4 °F 9.0 °F 55% 29.98 in 10.0 mi SW 10.4 mph - N/A   Clear
7:56 PM 25.0 °F 14.8 °F 10.0 °F 53% 29.96 in 10.0 mi SSW 10.4 mph - N/A   Clear
8:56 PM 26.1 °F 15.0 °F 10.9 °F 53% 29.93 in 10.0 mi South 12.7 mph - N/A   Clear
9:56 PM 28.9 °F 18.6 °F 12.0 °F 49% 29.91 in 10.0 mi SSW 12.7 mph 25.3 mph N/A   Clear
10:56 PM 28.0 °F 17.0 °F 12.9 °F 53% 29.91 in 10.0 mi SW 13.8 mph - N/A   Clear
11:56 PM 30.9 °F 20.2 °F 15.1 °F 52% 29.89 in 10.0 mi SW 15.0 mph 24.2 mph N/A   Clear